Weather History for Chadron, NE

Change the Weather History Date:

Saturday, December 29, 2012

  Actual Average Record
Temperature  
Mean Temperature 11 °F 24 °F  
Max Temperature 24 °F 38 °F 63 °F (1933)
Min Temperature -2 °F 10 °F -31 °F (1990)
Degree Days  
Heating Degree Days 54 41  
Month to date heating degree days 1127 1172  
Since 1 July heating degree days 2606 2856  
Cooling Degree Days 0 0  
Month to date cooling degree days 0 0  
Year to date cooling degree days 1167 712  
Moisture  
Dew Point 5 °F    
Average Humidity 76    
Maximum Humidity 91    
Minimum Humidity 60    
Precipitation  
Precipitation 0.00 in 0.01 in 0.45 in (1915)
Month to date precipitation 0.16 0.49  
Year to date precipitation 8.03 18.02  
Sea Level Pressure  
Sea Level Pressure 30.27 in    
Wind  
Wind Speed 3 mph (SW)    
Max Wind Speed 14 mph    
Max Gust Speed 15 mph    
Visibility 10 miles    
Events      
T = Trace of Precipitation, MM = Missing Value Source: NWS Daily Summary

Daily Weather History Graph

Daily Weather History Graph

Search for Another Location

Airport:

Trip Planner

Search our weather history database for the weather conditions in past years. The results will help you decide how hot, cold, wet, or windy it might be!

Date:

Astronomy

Dec. 29, 2012 Rise Set
Actual Time 7:22 AM MST 4:26 PM MST
Civil Twilight 6:50 AM MST 4:58 PM MST
Nautical Twilight 6:14 AM MST 5:34 PM MST
Astronomical Twilight 5:40 AM MST 6:09 PM MST
Moon 6:04 PM MST (12/29) 7:55 AM MST (12/29)
Length of Visible Light 10h 08m
Length of Day
9h 03m
Full, 98% of the Moon is Illuminated
Dec 29
Full
Jan 4
Last Quarter
Jan 11
New
Jan 18
First Quarter
Jan 26
Full

Hourly Weather History & Observations

Time (MST) Temp. Windchill Dew Point Humidity Pressure Visibility Wind Dir Wind Speed Gust Speed Precip Events Conditions
12:53 AM 9.0 °F -2.2 °F 6.1 °F 88% 30.27 in 10.0 mi WSW 6.9 mph - N/A   Clear
1:53 AM 7.0 °F -5.7 °F 3.0 °F 84% 30.29 in 10.0 mi SW 8.1 mph - N/A   Clear
2:53 AM 6.1 °F -0.9 °F 1.9 °F 83% 30.31 in 10.0 mi South 3.5 mph - N/A   Clear
3:53 AM 5.0 °F -5.6 °F 1.0 °F 84% 30.31 in 10.0 mi SSW 5.8 mph - N/A   Clear
5:53 AM 1.0 °F -15.8 °F -2.9 °F 83% 30.34 in 10.0 mi SW 11.5 mph - N/A   Clear
6:53 AM -0.0 °F -13.0 °F -4.0 °F 83% 30.33 in 10.0 mi WSW 6.9 mph - N/A   Clear
7:53 AM -0.0 °F -9.9 °F -5.1 °F 79% 30.34 in 10.0 mi WSW 4.6 mph - N/A   Clear
8:53 AM 3.9 °F - -0.9 °F 80% 30.36 in 10.0 mi Calm Calm - N/A   Clear
9:53 AM 10.0 °F 3.6 °F 3.0 °F 73% 30.36 in 10.0 mi WSW 3.5 mph - N/A   Clear
10:53 AM 16.0 °F 10.4 °F 8.1 °F 71% 30.34 in 10.0 mi SW 3.5 mph - N/A   Clear
11:53 AM 19.9 °F 13.4 °F 10.9 °F 68% 30.30 in 10.0 mi West 4.6 mph - 0.03 in   Clear
12:53 PM 23.0 °F - 12.0 °F 63% 30.27 in 10.0 mi Calm Calm - 0.03 in   Clear
1:53 PM 24.1 °F - 12.9 °F 62% 30.25 in 9.0 mi Calm Calm - 0.02 in   Clear
2:53 PM 21.9 °F - 12.0 °F 66% 30.25 in 9.0 mi Calm Calm - N/A   Clear
4:53 PM 15.1 °F - 10.0 °F 80% 30.24 in 10.0 mi Calm Calm - 0.01 in   Clear
5:53 PM 15.1 °F - 9.0 °F 77% 30.23 in 10.0 mi Calm Calm - N/A   Clear
6:53 PM 12.9 °F - 9.0 °F 84% 30.24 in 10.0 mi Calm Calm - N/A   Clear
7:53 PM 12.0 °F - 8.1 °F 84% 30.22 in 10.0 mi Calm Calm - N/A   Clear
8:53 PM 12.0 °F - 8.1 °F 84% 30.18 in 9.0 mi Calm Calm - N/A   Clear
9:53 PM 10.0 °F - 6.1 °F 84% 30.15 in 9.0 mi Calm Calm - N/A   Clear
11:53 PM 16.0 °F - 6.1 °F 65% 30.10 in 10.0 mi Calm Calm - N/A   Clear